Time,TemperatureF,DewpointF,PressureIn,WindDirection,WindDirectionDegrees,WindSpeedMPH,WindSpeedGustMPH,Humidity,HourlyPrecipIn,Conditions,Clouds,dailyrainin,SoftwareType,DateUTC
2013-02-25 00:01:00,41.0,20.0,30.03,SSE,153,1.0,2.0,43,0.00,,,0.01,,2013-02-25 05:01:00,
2013-02-25 00:11:00,41.0,20.0,30.03,SSE,153,1.0,2.0,43,0.00,,,0.01,,2013-02-25 05:11:00,
2013-02-25 00:22:00,40.0,20.0,30.03,SSE,153,0.0,3.0,45,0.00,,,0.00,,2013-02-25 05:22:00,
2013-02-25 00:32:00,40.0,20.0,30.02,SSE,153,0.0,2.0,45,0.00,,,0.00,,2013-02-25 05:32:00,
2013-02-25 00:42:00,40.0,20.0,30.02,SSE,153,0.0,2.0,45,0.00,,,0.00,,2013-02-25 05:42:00,
2013-02-25 00:52:00,39.0,20.0,30.02,SSE,153,0.0,2.0,46,0.00,,,0.00,,2013-02-25 05:52:00,
2013-02-25 01:02:00,39.0,20.0,30.01,SSE,153,0.0,3.0,47,0.00,,,0.00,,2013-02-25 06:02:00,
2013-02-25 01:11:00,39.0,20.0,30.01,SSE,153,0.0,3.0,47,0.00,,,0.00,,2013-02-25 06:11:00,
2013-02-25 01:21:00,38.0,20.0,30.02,SSE,153,1.0,2.0,48,0.00,,,0.00,,2013-02-25 06:21:00,
2013-02-25 01:32:00,38.0,21.0,30.03,SSE,153,0.0,0.0,50,0.00,,,0.00,,2013-02-25 06:32:00,
2013-02-25 01:42:00,38.0,21.0,30.03,SSE,153,0.0,0.0,50,0.00,,,0.00,,2013-02-25 06:42:00,
2013-02-25 01:51:00,37.0,21.0,30.03,SSE,153,0.0,0.0,51,0.01,,,0.01,,2013-02-25 06:51:00,
2013-02-25 02:01:00,37.0,21.0,30.01,SSE,153,0.0,0.0,53,0.01,,,0.01,,2013-02-25 07:01:00,
2013-02-25 02:11:00,35.0,21.0,30.02,SSE,153,0.0,0.0,57,0.01,,,0.01,,2013-02-25 07:11:00,
2013-02-25 02:21:00,35.0,21.0,30.02,SSE,153,0.0,0.0,57,0.01,,,0.01,,2013-02-25 07:21:00,
2013-02-25 02:32:00,35.0,22.0,30.01,SSE,153,0.0,0.0,59,0.01,,,0.01,,2013-02-25 07:32:00,
2013-02-25 02:42:00,35.0,22.0,30.01,SSE,153,0.0,0.0,59,0.01,,,0.01,,2013-02-25 07:42:00,
2013-02-25 02:52:00,34.0,23.0,30.01,SSE,153,0.0,0.0,63,0.00,,,0.01,,2013-02-25 07:52:00,
2013-02-25 03:01:00,34.0,23.0,30.00,SSE,153,0.0,1.0,65,0.00,,,0.01,,2013-02-25 08:01:00,
2013-02-25 03:11:00,33.0,23.0,30.01,SSE,153,0.0,1.0,67,0.00,,,0.01,,2013-02-25 08:11:00,
2013-02-25 03:21:00,33.0,23.0,30.01,SSE,153,0.0,1.0,67,0.00,,,0.01,,2013-02-25 08:21:00,
2013-02-25 03:32:00,33.0,24.0,30.01,SSE,153,0.0,0.0,70,0.00,,,0.01,,2013-02-25 08:32:00,
2013-02-25 03:41:00,33.0,24.0,30.01,SSE,153,0.0,0.0,70,0.00,,,0.01,,2013-02-25 08:41:00,
2013-02-25 03:52:00,32.0,24.0,30.00,SSE,153,0.0,0.0,71,0.00,,,0.01,,2013-02-25 08:52:00,
2013-02-25 04:01:00,32.0,24.0,30.00,SSE,153,0.0,0.0,73,0.01,,,0.02,,2013-02-25 09:01:00,
2013-02-25 04:12:00,32.0,24.0,30.00,SSE,153,0.0,0.0,73,0.01,,,0.02,,2013-02-25 09:12:00,
2013-02-25 04:21:00,32.0,25.0,30.00,SSE,153,0.0,0.0,75,0.01,,,0.02,,2013-02-25 09:21:00,
2013-02-25 04:32:00,31.0,24.0,30.01,SSE,153,0.0,0.0,75,0.01,,,0.02,,2013-02-25 09:32:00,
2013-02-25 04:42:00,31.0,24.0,30.01,SSE,153,0.0,0.0,75,0.01,,,0.02,,2013-02-25 09:42:00,
2013-02-25 04:52:00,31.0,24.0,30.00,SSE,153,0.0,0.0,75,0.01,,,0.02,,2013-02-25 09:52:00,
2013-02-25 05:01:00,32.0,25.0,30.01,SSE,153,0.0,0.0,74,0.00,,,0.02,,2013-02-25 10:01:00,
2013-02-25 05:11:00,32.0,25.0,30.01,SSE,153,0.0,0.0,74,0.00,,,0.02,,2013-02-25 10:11:00,
2013-02-25 05:21:00,32.0,25.0,30.01,SSE,153,0.0,0.0,74,0.00,,,0.02,,2013-02-25 10:21:00,
2013-02-25 05:32:00,32.0,25.0,30.01,SSE,153,0.0,0.0,74,0.00,,,0.02,,2013-02-25 10:32:00,
2013-02-25 05:42:00,32.0,25.0,30.01,SSE,153,0.0,0.0,74,0.00,,,0.02,,2013-02-25 10:42:00,
2013-02-25 05:52:00,33.0,25.0,30.01,SSE,153,0.0,1.0,73,0.00,,,0.02,,2013-02-25 10:52:00,
2013-02-25 06:01:00,33.0,24.0,30.01,SSE,153,0.0,1.0,70,0.00,,,0.02,,2013-02-25 11:01:00,
2013-02-25 06:11:00,33.0,24.0,30.01,SSE,153,0.0,1.0,70,0.00,,,0.02,,2013-02-25 11:11:00,
2013-02-25 06:21:00,33.0,24.0,30.01,SSE,153,0.0,2.0,70,0.00,,,0.02,,2013-02-25 11:21:00,
2013-02-25 06:32:00,33.0,24.0,30.02,SSE,153,0.0,1.0,70,0.00,,,0.02,,2013-02-25 11:32:00,
2013-02-25 06:42:00,33.0,24.0,30.02,SSE,153,0.0,1.0,70,0.00,,,0.02,,2013-02-25 11:42:00,
2013-02-25 06:52:00,33.0,24.0,30.02,SSE,153,0.0,0.0,70,0.00,,,0.02,,2013-02-25 11:52:00,
2013-02-25 07:02:00,33.0,25.0,30.02,SSE,153,0.0,1.0,71,0.00,,,0.02,,2013-02-25 12:02:00,
2013-02-25 07:11:00,33.0,25.0,30.02,SSE,153,0.0,1.0,71,0.00,,,0.02,,2013-02-25 12:11:00,
2013-02-25 07:21:00,33.0,25.0,30.03,SSE,153,0.0,0.0,72,0.00,,,0.02,,2013-02-25 12:21:00,
2013-02-25 07:32:00,33.0,25.0,30.03,SSE,153,0.0,0.0,72,0.00,,,0.02,,2013-02-25 12:32:00,
2013-02-25 07:42:00,33.0,25.0,30.03,SSE,153,0.0,0.0,72,0.00,,,0.02,,2013-02-25 12:42:00,
2013-02-25 08:02:00,33.0,25.0,30.04,SSE,153,0.0,1.0,71,0.00,,,0.02,,2013-02-25 13:02:00,
2013-02-25 08:12:00,33.0,25.0,30.04,SSE,153,0.0,1.0,71,0.00,,,0.02,,2013-02-25 13:12:00,
2013-02-25 08:22:00,33.0,25.0,30.04,SSE,153,0.0,0.0,72,0.00,,,0.02,,2013-02-25 13:22:00,
2013-02-25 08:32:00,34.0,26.0,30.03,SSE,153,0.0,0.0,72,0.00,,,0.02,,2013-02-25 13:32:00,
2013-02-25 08:42:00,34.0,26.0,30.03,SSE,153,0.0,0.0,72,0.00,,,0.02,,2013-02-25 13:42:00,
2013-02-25 08:52:00,34.0,26.0,30.03,SSE,153,0.0,0.0,71,0.00,,,0.02,,2013-02-25 13:52:00,
2013-02-25 09:03:00,34.0,26.0,30.04,SSE,153,0.0,1.0,72,0.00,,,0.02,,2013-02-25 14:03:00,
2013-02-25 09:17:00,34.0,26.0,30.04,SSE,153,0.0,1.0,72,0.00,,,0.02,,2013-02-25 14:17:00,
2013-02-25 09:32:00,35.0,27.0,30.04,South,175,0.0,3.0,72,0.00,,,0.02,,2013-02-25 14:32:00,
2013-02-25 09:42:00,35.0,27.0,30.04,South,175,0.0,3.0,72,0.00,,,0.02,,2013-02-25 14:42:00,
2013-02-25 09:52:00,35.0,27.0,30.02,SSW,194,0.0,0.0,71,0.00,,,0.02,,2013-02-25 14:52:00,
2013-02-25 10:02:00,35.0,26.0,30.03,SSW,194,1.0,2.0,70,0.00,,,0.02,,2013-02-25 15:02:00,
2013-02-25 10:11:00,35.0,26.0,30.03,SSW,194,1.0,2.0,70,0.00,,,0.02,,2013-02-25 15:11:00,
2013-02-25 10:22:00,36.0,26.0,30.03,NNW,344,0.0,3.0,67,0.00,,,0.02,,2013-02-25 15:22:00,
2013-02-25 10:32:00,37.0,26.0,30.03,NNW,344,0.0,2.0,65,0.00,,,0.02,,2013-02-25 15:32:00,
2013-02-25 10:42:00,37.0,26.0,30.03,NNW,344,0.0,2.0,65,0.00,,,0.02,,2013-02-25 15:42:00,
2013-02-25 10:52:00,38.0,28.0,30.03,NNW,327,0.0,3.0,66,0.00,,,0.02,,2013-02-25 15:52:00,
2013-02-25 11:02:00,38.0,27.0,30.03,NNW,327,0.0,2.0,65,0.00,,,0.02,,2013-02-25 16:02:00,
2013-02-25 11:12:00,38.0,27.0,30.03,NNW,327,0.0,2.0,65,0.00,,,0.02,,2013-02-25 16:12:00,
2013-02-25 11:21:00,38.0,28.0,30.02,NNW,328,0.0,2.0,67,0.00,,,0.02,,2013-02-25 16:21:00,
2013-02-25 11:32:00,39.0,27.0,30.02,NNW,328,0.0,2.0,63,0.00,,,0.02,,2013-02-25 16:32:00,
2013-02-25 11:42:00,39.0,27.0,30.02,NNW,328,0.0,2.0,63,0.00,,,0.02,,2013-02-25 16:42:00,
2013-02-25 11:51:00,40.0,28.0,30.02,WNW,295,0.0,1.0,61,0.00,,,0.02,,2013-02-25 16:51:00,
2013-02-25 12:02:00,40.0,28.0,30.02,NW,319,0.0,3.0,61,0.00,,,0.02,,2013-02-25 17:02:00,
2013-02-25 12:11:00,40.0,28.0,30.02,NW,319,0.0,3.0,61,0.00,,,0.02,,2013-02-25 17:11:00,
2013-02-25 12:21:00,41.0,28.0,30.01,NW,320,0.0,2.0,60,0.00,,,0.02,,2013-02-25 17:21:00,
2013-02-25 12:32:00,42.0,29.0,30.02,NW,319,0.0,1.0,59,0.00,,,0.02,,2013-02-25 17:32:00,
2013-02-25 12:42:00,42.0,29.0,30.02,NW,319,0.0,1.0,59,0.00,,,0.02,,2013-02-25 17:42:00,
2013-02-25 12:52:00,42.0,29.0,29.99,NNW,342,1.0,2.0,60,0.00,,,0.02,,2013-02-25 17:52:00,
2013-02-25 13:01:00,42.0,29.0,29.98,NW,317,1.0,3.0,60,0.00,,,0.02,,2013-02-25 18:01:00,
2013-02-25 13:12:00,42.0,29.0,29.98,NW,317,1.0,3.0,60,0.00,,,0.02,,2013-02-25 18:12:00,
2013-02-25 13:21:00,43.0,30.0,29.99,NNW,330,1.0,4.0,59,0.00,,,0.02,,2013-02-25 18:21:00,
2013-02-25 13:32:00,44.0,31.0,29.98,NNW,348,0.0,4.0,60,0.00,,,0.02,,2013-02-25 18:32:00,
2013-02-25 13:42:00,44.0,31.0,29.98,NNW,348,0.0,4.0,60,0.00,,,0.02,,2013-02-25 18:42:00,
2013-02-25 13:52:00,45.0,32.0,29.97,NNW,346,0.0,3.0,59,0.00,,,0.02,,2013-02-25 18:52:00,
2013-02-25 14:01:00,47.0,31.0,29.97,West,267,0.0,4.0,53,0.00,,,0.02,,2013-02-25 19:01:00,
2013-02-25 14:11:00,47.0,31.0,29.97,West,267,0.0,4.0,53,0.00,,,0.02,,2013-02-25 19:11:00,
2013-02-25 14:21:00,47.0,30.0,29.97,WNW,302,1.0,4.0,52,0.00,,,0.02,,2013-02-25 19:21:00,
2013-02-25 14:32:00,50.0,32.0,29.96,NE,53,1.0,5.0,50,0.00,,,0.02,,2013-02-25 19:32:00,
2013-02-25 14:42:00,50.0,32.0,29.96,NE,53,1.0,5.0,50,0.00,,,0.02,,2013-02-25 19:42:00,
2013-02-25 14:52:00,53.0,31.0,29.96,NE,40,1.0,3.0,43,0.00,,,0.02,,2013-02-25 19:52:00,
2013-02-25 15:01:00,53.0,31.0,29.96,North,11,0.0,3.0,42,0.00,,,0.02,,2013-02-25 20:01:00,
2013-02-25 15:11:00,53.0,31.0,29.96,North,11,0.0,3.0,42,0.00,,,0.02,,2013-02-25 20:11:00,
2013-02-25 15:21:00,54.0,30.0,29.95,NW,315,4.0,6.0,40,0.00,,,0.02,,2013-02-25 20:21:00,
2013-02-25 15:32:00,55.0,31.0,29.94,North,5,2.0,7.0,39,0.00,,,0.02,,2013-02-25 20:32:00,
2013-02-25 15:42:00,55.0,31.0,29.94,North,5,2.0,7.0,39,0.00,,,0.02,,2013-02-25 20:42:00,
2013-02-25 15:52:00,55.0,31.0,29.93,NW,324,1.0,6.0,39,0.00,,,0.02,,2013-02-25 20:52:00,
2013-02-25 16:01:00,56.0,31.0,29.92,WNW,284,0.0,4.0,39,0.00,,,0.02,,2013-02-25 21:01:00,
2013-02-25 16:11:00,56.0,31.0,29.92,WNW,284,0.0,4.0,39,0.00,,,0.02,,2013-02-25 21:11:00,
2013-02-25 16:21:00,56.0,30.0,29.92,NNW,340,1.0,4.0,37,0.00,,,0.02,,2013-02-25 21:21:00,
2013-02-25 16:32:00,56.0,31.0,29.92,NNW,340,0.0,1.0,38,0.00,,,0.02,,2013-02-25 21:32:00,
2013-02-25 16:42:00,56.0,31.0,29.92,NNW,340,0.0,1.0,38,0.00,,,0.02,,2013-02-25 21:42:00,
2013-02-25 16:52:00,57.0,33.0,29.92,NNW,340,0.0,0.0,40,0.00,,,0.02,,2013-02-25 21:52:00,
2013-02-25 17:01:00,57.0,32.0,29.92,NNW,340,0.0,0.0,39,0.00,,,0.02,,2013-02-25 22:01:00,
2013-02-25 17:11:00,57.0,32.0,29.92,NNW,340,0.0,0.0,39,0.00,,,0.02,,2013-02-25 22:11:00,
2013-02-25 17:21:00,56.0,31.0,29.91,NNW,340,0.0,1.0,39,0.00,,,0.02,,2013-02-25 22:21:00,
2013-02-25 17:32:00,57.0,32.0,29.90,NNW,340,0.0,0.0,39,0.00,,,0.02,,2013-02-25 22:32:00,
2013-02-25 17:42:00,57.0,32.0,29.90,NNW,340,0.0,0.0,39,0.00,,,0.02,,2013-02-25 22:42:00,
2013-02-25 17:51:00,57.0,31.0,29.88,NE,38,1.0,3.0,37,0.00,,,0.02,,2013-02-25 22:51:00,
2013-02-25 18:01:00,57.0,30.0,29.88,NNE,14,0.0,3.0,35,0.00,,,0.02,,2013-02-25 23:01:00,
2013-02-25 18:11:00,57.0,30.0,29.88,NNE,14,0.0,3.0,35,0.00,,,0.02,,2013-02-25 23:11:00,
2013-02-25 18:22:00,57.0,32.0,29.88,NE,51,0.0,1.0,38,0.00,,,0.02,,2013-02-25 23:22:00,
2013-02-25 18:32:00,56.0,31.0,29.87,NE,51,0.0,1.0,39,0.01,,,0.03,,2013-02-25 23:32:00,
2013-02-25 18:42:00,56.0,31.0,29.87,NE,51,0.0,1.0,39,0.01,,,0.03,,2013-02-25 23:42:00,
2013-02-25 18:52:00,54.0,33.0,29.86,NE,51,0.0,1.0,44,0.01,,,0.03,,2013-02-25 23:52:00,
2013-02-25 19:01:00,52.0,31.0,29.86,NE,51,0.0,2.0,44,0.01,,,0.03,,2013-02-26 00:01:00,
2013-02-25 19:12:00,52.0,31.0,29.86,NE,51,0.0,2.0,44,0.01,,,0.03,,2013-02-26 00:12:00,
2013-02-25 19:22:00,51.0,30.0,29.85,NE,52,0.0,3.0,44,0.01,,,0.03,,2013-02-26 00:22:00,
2013-02-25 19:32:00,51.0,30.0,29.84,SE,130,1.0,3.0,45,0.01,,,0.03,,2013-02-26 00:32:00,
2013-02-25 19:42:00,51.0,30.0,29.84,SE,130,1.0,3.0,45,0.01,,,0.03,,2013-02-26 00:42:00,
2013-02-25 19:52:00,50.0,30.0,29.84,SSE,166,2.0,3.0,46,0.00,,,0.03,,2013-02-26 00:52:00,
2013-02-25 20:02:00,50.0,29.0,29.84,NW,307,1.0,2.0,45,0.00,,,0.03,,2013-02-26 01:02:00,
2013-02-25 20:11:00,50.0,29.0,29.84,NW,307,1.0,2.0,45,0.00,,,0.03,,2013-02-26 01:11:00,
2013-02-25 20:21:00,50.0,31.0,29.83,ENE,62,2.0,4.0,47,0.00,,,0.03,,2013-02-26 01:21:00,
2013-02-25 20:32:00,49.0,30.0,29.83,ENE,63,1.0,2.0,48,0.00,,,0.03,,2013-02-26 01:32:00,
2013-02-25 20:42:00,49.0,30.0,29.83,ENE,63,1.0,2.0,48,0.00,,,0.03,,2013-02-26 01:42:00,
2013-02-25 20:51:00,49.0,31.0,29.83,ENE,63,0.0,4.0,50,0.00,,,0.03,,2013-02-26 01:51:00,
2013-02-25 21:01:00,48.0,31.0,29.83,SW,226,0.0,3.0,52,0.00,,,0.03,,2013-02-26 02:01:00,
2013-02-25 21:11:00,48.0,31.0,29.83,SW,226,0.0,3.0,52,0.00,,,0.03,,2013-02-26 02:11:00,
2013-02-25 21:21:00,48.0,30.0,29.84,South,184,0.0,2.0,50,0.00,,,0.03,,2013-02-26 02:21:00,
2013-02-25 21:32:00,48.0,30.0,29.85,SSW,209,1.0,3.0,49,0.00,,,0.03,,2013-02-26 02:32:00,
2013-02-25 21:42:00,48.0,30.0,29.85,SSW,209,1.0,3.0,49,0.00,,,0.03,,2013-02-26 02:42:00,
2013-02-25 21:52:00,48.0,30.0,29.86,SSW,209,0.0,2.0,50,0.00,,,0.03,,2013-02-26 02:52:00,
2013-02-25 22:02:00,48.0,30.0,29.84,SSW,209,0.0,2.0,50,0.00,,,0.03,,2013-02-26 03:02:00,
2013-02-25 22:11:00,48.0,30.0,29.84,SSW,209,0.0,2.0,50,0.00,,,0.03,,2013-02-26 03:11:00,
2013-02-25 22:21:00,48.0,31.0,29.83,SSW,209,0.0,3.0,51,0.00,,,0.03,,2013-02-26 03:21:00,
2013-02-25 22:32:00,48.0,31.0,29.83,SSW,209,1.0,2.0,51,0.00,,,0.03,,2013-02-26 03:32:00,
2013-02-25 22:42:00,48.0,31.0,29.83,SSW,209,1.0,2.0,51,0.00,,,0.03,,2013-02-26 03:42:00,
2013-02-25 22:52:00,49.0,31.0,29.80,SSW,192,0.0,1.0,50,0.00,,,0.03,,2013-02-26 03:52:00,
2013-02-25 23:01:00,49.0,34.0,29.81,SSW,192,0.0,2.0,55,0.00,,,0.03,,2013-02-26 04:01:00,
2013-02-25 23:11:00,49.0,34.0,29.81,SSW,192,0.0,2.0,55,0.00,,,0.03,,2013-02-26 04:11:00,
2013-02-25 23:22:00,50.0,35.0,29.80,East,88,6.0,10.0,57,0.00,,,0.03,,2013-02-26 04:22:00,
2013-02-25 23:32:00,50.0,33.0,29.79,ENE,63,1.0,4.0,52,0.00,,,0.03,,2013-02-26 04:32:00,
2013-02-25 23:42:00,50.0,33.0,29.79,ENE,63,1.0,4.0,52,0.00,,,0.03,,2013-02-26 04:42:00,
2013-02-25 23:52:00,50.0,34.0,29.80,ESE,119,0.0,3.0,55,0.00,,,0.03,,2013-02-26 04:52:00,